Location: *
(40.7873°S, 98.7174°E)
Time: 22:56:24
(UTC+00:00)

Cosmos 1153 Rocket - Pass Details

Date: 10 October 2022
Orbit: 953 x 1007 km, 82.9° (Epoch: 09 December)

Event Time Altitude Azimuth Distance (km) Brightness Sun altitude
Rises 19:56:34 0° 197° (SSW) 3,676 7.8 -29.2°
Reaches altitude 10° 19:59:17 10° 205° (SSW) 2,718 7.0 -28.8°
Enters shadow 20:02:34 27° 229° (SW) 1,769 5.7 -28.4°
